SCOUT X-4 R/B, 721

Orbit data source: Space-Track

SCOUT X-4 R/B, 721 is space debris in LEO originally from a launch on Thu, 19 Dec 1963 UTC launched from the Air Force Western Test Range (AFWTR). Debris objects in space refer to the collection of defunct objects orbiting the Earth. Examples of debris include non-operational satellites, rocket bodies, and fragments generated from explosions, collisions, or faulty payload assembly.

Loading next visibility...
Identifier
721, 1963-053B
Orbit
LEO
Country
Flag of USUS
Related business
Manufacturer
ABL
Mission
Spacecraft
Bus & Motor
ALTAIR, Unknown motor
Mass
68 kg wet, 33 kg dry
Launch date (UTC)
1963-12-19 (62 years ago)
Launch vehicle
Unknown
Launch site
Air Force Western Test Range (AFWTR)
Object type
Payload
Rocket body
Debris
Shape & HBR
Unknown
Radar Cross Section
Medium (>0.1 m² and <1 m²)

Expand to show TLE details & history
Last TLE update: 13 hours ago

TLE from 13 hours ago
0 SCOUT X-4 R/B
1   721U 63053B   26012.73123545  .00000294  00000-0  17191-3 0  9995
2   721  78.6004 264.2355 1088252 358.9755   0.9091 12.55026586830552
Epoch: 2026-01-12T17:32Z
TLE epoch observation values (Epoch: 2026-01-12T17:32:58.742Z)
Latitude
-0.00007°
Longitude
-111.23299°
Altitude
594.974 km
Speed
7.963 km/s
True Right ascension
17h 36m 56s
True Declination
0° 00' 00"
Sunlit
Object was in daylight at epoch
Visualization orbit readout
Latitude
Unknown
Longitude
Unknown
Altitude
Unknown
Speed
Unknown
Apparent Right ascension
Unknown
Apparent Declination
Unknown
Sunlit
N/A
Visualization observer readout
Local Sidereal Time
06:59:09
Azimuth
Unknown
Elevation
Unknown
Doppler factor
Unknown
Orbital elements
Apogee altitude
2,291.936 km
Perigee altitude
590.095 km
Semi-major axis
7,819.152 km
Eccentricity
0.10883
Inclination
78.6004°
RAAN
264.2355°
Arg. of periapsis
358.9755°
True anomaly
1.13787°
Mean anomaly
0.9091°
Eccentric anomaly
1.02011°
Mean motion
3.13909 °/min
Orbital period
114.68 mins
BSTAR
0.00017191
Loading maneuver chart data...
Computing Atmospheric mass density...
Loading historical data...
Loading historical data...
Loading historical data...
Loading historical data...
Loading historical data...
Loading historical data...
Loading historical data...

Documentation

Showing up to 5 results
|